When you browse on this site, cookies collect data to enhance your experience and personalize the content and advertising you see.
Visit our Privacy Policy to learn more. By continuing to use the site, you agree to this use of cookies and data.
  • In Deutschland
  • Länderverzeichnis
  • Für 7 Tage
  • Wassertemperatur
  • Wetterkarte
  • Widgets
  • user-avatar
    Anmelden

    Stündliche Wetter Darwin

    Heute, 18 Oktober, Freitag

    Zeit Temperatur Niederschläge Wind Luftdruck Luftfeuchtigkeit
    00:00 +26°C° 0 mm 3 m/S 758 mmHg 87%
    01:00 +25°C° 0 mm 2 m/S 758 mmHg 89%
    02:00 +25°C° 0 mm 2 m/S 758 mmHg 90%
    03:00 +24°C° 0 mm 1 m/S 758 mmHg 93%
    04:00 +24°C° 0 mm 2 m/S 758 mmHg 94%
    05:00 +22°C° 0 mm 3 m/S 758 mmHg 95%
    06:00 +22°C° 0 mm 3 m/S 759 mmHg 96%
    07:00 +26°C° 0 mm 3 m/S 759 mmHg 80%
    08:00 +30°C° 0 mm 3 m/S 759 mmHg 64%
    09:00 +34°C° 0 mm 3 m/S 760 mmHg 46%
    10:00 +37°C° 0 mm 4 m/S 759 mmHg 38%
    11:00 +40°C° 0 mm 5 m/S 759 mmHg 30%
    12:00 +44°C° 0 mm 6 m/S 758 mmHg 22%
    13:00 +44°C° 0 mm 6 m/S 757 mmHg 23%
    14:00 +44°C° 0 mm 6 m/S 756 mmHg 23%
    15:00 +44°C° 0 mm 7 m/S 755 mmHg 23%
    16:00 +41°C° 0 mm 6 m/S 756 mmHg 27%
    17:00 +38°C° 0 mm 6 m/S 756 mmHg 32%
    18:00 +35°C° 0 mm 5 m/S 756 mmHg 36%
    19:00 +33°C° 0 mm 4 m/S 757 mmHg 52%
    20:00 +30°C° 0 mm 3 m/S 758 mmHg 68%
    21:00 +27°C° 0 mm 2 m/S 759 mmHg 84%
    22:00 +27°C° 0 mm 2 m/S 759 mmHg 86%
    23:00 +27°C° 0 mm 2 m/S 759 mmHg 88%

    Morgen, 19 Oktober, Samstag

    Zeit Temperatur Niederschläge Wind Luftdruck Luftfeuchtigkeit
    00:00 +26°C° 0 mm 2 m/S 760 mmHg 89%
    01:00 +26°C° 0 mm 2 m/S 759 mmHg 89%
    02:00 +26°C° 0 mm 2 m/S 759 mmHg 89%
    03:00 +25°C° 0 mm 2 m/S 758 mmHg 89%
    04:00 +25°C° 0 mm 2 m/S 759 mmHg 89%
    05:00 +25°C° 0 mm 2 m/S 759 mmHg 90%
    06:00 +24°C° 0 mm 2 m/S 759 mmHg 90%
    07:00 +28°C° 0 mm 2 m/S 760 mmHg 76%
    08:00 +31°C° 0 mm 2 m/S 760 mmHg 62%
    09:00 +35°C° 0 mm 2 m/S 760 mmHg 47%
    10:00 +37°C° 0 mm 3 m/S 760 mmHg 40%
    11:00 +40°C° 0 mm 3 m/S 759 mmHg 32%
    12:00 +43°C° 0 mm 3 m/S 758 mmHg 25%
    13:00 +42°C° 0 mm 4 m/S 758 mmHg 29%
    14:00 +40°C° 0 mm 4 m/S 757 mmHg 33%
    15:00 +39°C° 0 mm 5 m/S 756 mmHg 37%
    16:00 +37°C° 0 mm 4 m/S 756 mmHg 40%
    17:00 +36°C° 0 mm 4 m/S 757 mmHg 44%
    18:00 +34°C° 0 mm 3 m/S 757 mmHg 47%
    19:00 +33°C° 0 mm 4 m/S 758 mmHg 56%
    20:00 +32°C° 0 mm 4 m/S 759 mmHg 65%
    21:00 +29°C° 0 mm 4 m/S 759 mmHg 74%
    22:00 +29°C° 0 mm 3 m/S 759 mmHg 78%
    23:00 +28°C° 0 mm 2 m/S 760 mmHg 82%

    übermorgen, 20 Oktober, Sonntag

    Zeit Temperatur Niederschläge Wind Luftdruck Luftfeuchtigkeit
    00:00 +27°C° 0 mm 1 m/S 760 mmHg 86%
    01:00 +27°C° 0 mm 1 m/S 759 mmHg 87%
    02:00 +26°C° 0 mm 1 m/S 759 mmHg 89%
    03:00 +26°C° 0 mm 1 m/S 759 mmHg 90%
    04:00 +25°C° 0 mm 1 m/S 759 mmHg 91%
    05:00 +25°C° 0 mm 1 m/S 759 mmHg 92%
    06:00 +25°C° 0 mm 1 m/S 759 mmHg 93%
    07:00 +28°C° 0 mm 2 m/S 759 mmHg 77%
    08:00 +32°C° 0 mm 2 m/S 760 mmHg 60%
    09:00 +36°C° 0 mm 2 m/S 760 mmHg 44%
    10:00 +39°C° 0 mm 3 m/S 759 mmHg 35%
    11:00 +42°C° 0 mm 4 m/S 759 mmHg 26%
    12:00 +45°C° 0 mm 5 m/S 758 mmHg 18%
    13:00 +43°C° 0 mm 5 m/S 757 mmHg 24%
    14:00 +41°C° 0 mm 5 m/S 756 mmHg 29%
    15:00 +40°C° 0 mm 5 m/S 755 mmHg 35%
    16:00 +37°C° 0 mm 5 m/S 755 mmHg 41%
    17:00 +35°C° 0 mm 4 m/S 756 mmHg 47%
    18:00 +34°C° 0 mm 3 m/S 756 mmHg 53%
    19:00 +31°C° 0 mm 3 m/S 757 mmHg 64%
    20:00 +29°C° 0 mm 2 m/S 758 mmHg 76%
    21:00 +27°C° 0 mm 2 m/S 758 mmHg 87%
    22:00 +27°C° 0 mm 2 m/S 759 mmHg 87%
    23:00 +27°C° 0 mm 3 m/S 759 mmHg 87%

    21 Oktober, Montag

    Zeit Temperatur Niederschläge Wind Luftdruck Luftfeuchtigkeit
    00:00 +27°C° 0 mm 3 m/S 759 mmHg 88%
    01:00 +26°C° 0 mm 3 m/S 758 mmHg 89%
    02:00 +26°C° 0 mm 2 m/S 758 mmHg 90%
    03:00 +25°C° 0 mm 2 m/S 758 mmHg 92%
    04:00 +25°C° 0 mm 2 m/S 758 mmHg 92%
    05:00 +25°C° 0 mm 2 m/S 758 mmHg 92%
    06:00 +25°C° 0 mm 1 m/S 758 mmHg 93%
    07:00 +28°C° 0 mm 1 m/S 759 mmHg 75%
    08:00 +31°C° 0 mm 2 m/S 759 mmHg 58%
    09:00 +36°C° 0 mm 2 m/S 759 mmHg 40%
    10:00 +37°C° 0 mm 3 m/S 759 mmHg 33%
    11:00 +39°C° 0 mm 3 m/S 758 mmHg 26%
    12:00 +42°C° 0 mm 4 m/S 758 mmHg 19%
    13:00 +43°C° 0 mm 4 m/S 757 mmHg 18%
    14:00 +43°C° 0 mm 3 m/S 756 mmHg 18%
    15:00 +43°C° 0 mm 3 m/S 755 mmHg 18%
    16:00 +39°C° 0 mm 3 m/S 755 mmHg 26%
    17:00 +36°C° 0 mm 3 m/S 755 mmHg 34%
    18:00 +33°C° 0 mm 3 m/S 755 mmHg 42%
    19:00 +30°C° 0 mm 3 m/S 756 mmHg 56%
    20:00 +28°C° 0 mm 3 m/S 757 mmHg 70%
    21:00 +26°C° 0 mm 3 m/S 758 mmHg 83%
    22:00 +26°C° 0 mm 3 m/S 758 mmHg 84%
    23:00 +26°C° 0 mm 3 m/S 758 mmHg 85%

    22 Oktober, Dienstag

    Zeit Temperatur Niederschläge Wind Luftdruck Luftfeuchtigkeit
    00:00 +26°C° 0 mm 3 m/S 758 mmHg 86%
    01:00 +26°C° 0 mm 2 m/S 758 mmHg 86%
    02:00 +26°C° 0 mm 2 m/S 757 mmHg 86%
    03:00 +26°C° 0 mm 2 m/S 757 mmHg 87%
    04:00 +25°C° 0 mm 2 m/S 757 mmHg 88%
    05:00 +25°C° 0 mm 2 m/S 758 mmHg 90%
    06:00 +24°C° 0 mm 2 m/S 758 mmHg 92%
    07:00 +28°C° 0 mm 2 m/S 758 mmHg 76%
    08:00 +31°C° 0 mm 2 m/S 759 mmHg 60%
    09:00 +35°C° 0 mm 2 m/S 759 mmHg 44%
    10:00 +37°C° 0 mm 3 m/S 758 mmHg 35%
    11:00 +40°C° 0 mm 3 m/S 758 mmHg 25%
    12:00 +43°C° 0 mm 4 m/S 757 mmHg 16%
    13:00 +42°C° 0 mm 4 m/S 756 mmHg 20%
    14:00 +41°C° 0 mm 4 m/S 755 mmHg 23%
    15:00 +40°C° 0 mm 5 m/S 754 mmHg 27%
    16:00 +37°C° 0 mm 4 m/S 754 mmHg 33%
    17:00 +35°C° 0 mm 4 m/S 755 mmHg 39%
    18:00 +33°C° 0 mm 3 m/S 755 mmHg 45%
    19:00 +30°C° 0 mm 3 m/S 756 mmHg 57%
    20:00 +29°C° 0 mm 3 m/S 757 mmHg 68%
    21:00 +27°C° 0 mm 4 m/S 757 mmHg 80%
    22:00 +27°C° 0 mm 3 m/S 758 mmHg 81%
    23:00 +27°C° 0 mm 3 m/S 758 mmHg 81%

    23 Oktober, Mittwoch

    Zeit Temperatur Niederschläge Wind Luftdruck Luftfeuchtigkeit
    00:00 +26°C° 0 mm 2 m/S 758 mmHg 82%
    01:00 +26°C° 0 mm 3 m/S 758 mmHg 82%
    02:00 +26°C° 0 mm 3 m/S 757 mmHg 82%
    03:00 +25°C° 0 mm 3 m/S 757 mmHg 81%
    04:00 +25°C° 0 mm 2 m/S 757 mmHg 83%
    05:00 +25°C° 0 mm 2 m/S 758 mmHg 85%
    06:00 +24°C° 0 mm 2 m/S 758 mmHg 87%
    07:00 +27°C° 0 mm 2 m/S 758 mmHg 73%
    08:00 +30°C° 0 mm 3 m/S 759 mmHg 59%
    09:00 +34°C° 0 mm 3 m/S 759 mmHg 44%
    10:00 +36°C° 0 mm 4 m/S 759 mmHg 38%
    11:00 +39°C° 0 mm 5 m/S 758 mmHg 31%
    12:00 +41°C° 0 mm 6 m/S 757 mmHg 24%
    13:00 +41°C° 0 mm 6 m/S 757 mmHg 24%
    14:00 +41°C° 0 mm 6 m/S 756 mmHg 24%
    15:00 +42°C° 0 mm 6 m/S 755 mmHg 24%
    16:00 +39°C° 0 mm 6 m/S 755 mmHg 33%
    17:00 +36°C° 0 mm 6 m/S 755 mmHg 42%
    18:00 +33°C° 0 mm 6 m/S 755 mmHg 51%
    19:00 +32°C° 0.1 mm 5 m/S 756 mmHg 59%
    20:00 +29°C° 0.1 mm 4 m/S 757 mmHg 68%
    21:00 +28°C° 0.1 mm 3 m/S 757 mmHg 77%
    22:00 +28°C° 1.4 mm 2 m/S 758 mmHg 77%
    23:00 +27°C° 1.4 mm 2 m/S 758 mmHg 78%
    Mehr zeigen